[[{"header":{"parameterUnit":"m.s-1","parameterCategory":1,"la1":30.2991,"la2":30.254,"lo1":-89.0895,"lo2":-89.0444,"dy":0.0017,"dx":0.0017,"nx":28,"ny":28,"refTime":"2024-07-03T09:00:00:Z","depth":0,"parameterNumber":2,"parameterNumberName":"U-component_of_WINDS"},"data":[0,0,0,0,0,0,0,0,0,0,0,0,0,0,0,0,0,0,0,0,0,0,0,0,0,0,0,0,0,0,0,0,0,0,0,0,0,0,0,0,0,0,0,0,0,0,0,0,0,0,0,0,0,0,0,0,0,0,-1.0743,-1.0741,0,-1.0596,-1.0595,-1.0593,-1.0526,-1.0526,-1.0527,-1.0527,-1.0372,-1.0368,-1.0363,0,0,0,0,0,0,0,0,0,0,0,0,0,-1.096,-1.0956,-1.0743,-1.0741,-1.0739,-1.0597,-1.0595,-1.0593,-1.0526,-1.0526,-1.0527,-1.0527,-1.0373,-1.0368,-1.0363,0,0,0,0,0,0,0,0,0,0,0,0,0,-1.0844,-1.0955,-1.0743,-1.0689,-1.0683,-1.0597,-1.0595,-1.0592,-1.0526,-1.0526,-1.0527,-1.0527,-1.0375,-1.0369,-1.0362,-1.0318,0,0,-1.0343,-1.034,0,0,0,0,0,0,0,0,-1.0851,-1.0837,-1.0699,-1.0693,-1.0685,-1.058,-1.0614,-1.05,-1.0526,-1.0585,-1.0527,-1.0527,-1.0441,-1.0429,-1.0401,-1.0311,-1.0304,-1.0342,-1.0338,-1.0336,-1.0334,0,0,0,0,0,0,0,-1.0859,-1.0842,-1.0685,-1.0697,-1.0689,-1.067,-1.0654,-1.0592,-1.0513,-1.058,-1.0575,-1.0559,-1.0437,-1.0407,-1.0396,-1.0302,-1.0342,-1.0337,-1.0333,-1.033,-1.0167,-1.0167,0,0,0,0,0,0,-1.0877,-1.085,-1.0689,-1.068,-1.0771,-1.0666,-1.0648,-1.0613,-1.0514,-1.0499,-1.0559,-1.0556,-1.0418,-1.0404,-1.0391,-1.0332,-1.0336,-1.033,-1.0326,-1.0168,-1.0167,-1.0167,0,0,0,0,0,0,-1.0882,-1.0863,-1.0695,-1.0763,-1.0741,-1.0662,-1.0624,-1.061,-1.058,-1.0498,-1.0483,-1.0543,-1.0417,-1.04,-1.0337,-1.0325,-1.0327,-1.0321,-1.0168,-1.0168,-1.0167,-1.0214,0,0,0,0,0,0,-1.0888,-1.0865,-1.0849,-1.0764,-1.0737,-1.0645,-1.0623,-1.0607,-1.057,-1.0566,-1.0479,-1.0465,-1.0416,-1.0347,-1.033,-1.0317,-1.0316,-1.0169,-1.0168,-1.0167,-1.0213,-1.0215,-1.0216,0,0,0,0,0,-1.0896,-1.0867,-1.0848,-1.0829,-1.0715,-1.0645,-1.063,-1.0576,-1.057,-1.0551,-1.0498,-1.0468,-1.033,-1.0341,-1.0322,-1.0306,-1.0169,-1.0168,-1.0167,-1.0212,-1.0214,-1.0216,0,0,0,0,0,0,-1.095,-1.0855,-1.0833,-1.0776,-1.0719,-1.0634,-1.0609,-1.058,-1.0523,-1.052,-1.0454,-1.0435,-1.0378,-1.0335,-1.035,-1.0257,-1.0247,-1.0242,-1.0287,-1.0289,-1.029,-1.0301,-1.0311,0,0,0,0,0,-1.0956,-1.0909,-1.0827,-1.0784,-1.0757,-1.0688,-1.0655,-1.0619,-1.0557,-1.0532,-1.0474,-1.0414,-1.0357,-1.032,-1.0263,-1.0207,-1.0186,-1.0186,-1.0188,-1.019,-1.0186,-1.0152,-1.0151,-1.0163,-1.0163,-1.0163,0,0,-1.0967,-1.0908,-1.0882,-1.0793,-1.0745,-1.0696,-1.0668,-1.0617,-1.0579,-1.0524,-1.0461,-1.0417,-1.0345,-1.0285,-1.0255,-1.0248,-1.0178,-1.0189,-1.0191,-1.0186,-1.0151,-1.015,-1.0149,-1.0162,-1.0162,-1.0163,0,0,-1.096,-1.0912,-1.0871,-1.0824,-1.0752,-1.0707,-1.0697,-1.0616,-1.0585,-1.0522,-1.0479,-1.0432,-1.0335,-1.0286,-1.0248,-1.0224,-1.0193,-1.0207,-1.0215,-1.0183,-1.0182,-1.0181,-1.0171,-1.0169,-1.0204,-1.0204,-1.0204,0,-1.0982,-1.0907,-1.0853,-1.0805,-1.0766,-1.0716,-1.0673,-1.0629,-1.0542,-1.0516,-1.0509,-1.0386,-1.0334,-1.0262,-1.0256,-1.0227,-1.0213,-1.0216,-1.0187,-1.0185,-1.0183,-1.0173,-1.017,-1.0206,-1.0206,-1.0205,-1.0205,0,-1.0937,-1.0886,-1.0861,-1.078,-1.0739,-1.0693,-1.0631,-1.0595,-1.0563,-1.0518,-1.0453,-1.0389,-1.0318,-1.0298,-1.0265,-1.0221,-1.0218,-1.02,-1.0188,-1.0185,-1.0175,-1.017,-1.0209,-1.0208,-1.0207,-1.0207,0,0,-1.096,-1.085,-1.0842,-1.0805,-1.0722,-1.0681,-1.0632,-1.0565,-1.0535,-1.0476,-1.0433,-1.0353,-1.0336,-1.0293,-1.0254,-1.0226,-1.021,-1.0211,-1.0208,-1.0212,-1.0155,-1.0169,-1.0165,-1.0189,-1.0188,-1.0188,-1.0161,0,-1.0941,-1.0855,-1.0805,-1.0738,-1.0689,-1.0641,-1.0598,-1.0542,-1.0499,-1.045,-1.0401,-1.0345,-1.0328,-1.0301,-1.0272,-1.0218,-1.0197,-1.0219,-1.0147,-1.0145,-1.0165,-1.016,-1.0174,-1.0152,-1.0157,-1.0156,-1.0155,0,-1.0908,-1.0853,-1.0782,-1.0705,-1.0683,-1.0646,-1.0579,-1.0534,-1.0469,-1.0439,-1.0392,-1.0353,-1.0299,-1.0292,-1.0215,-1.0231,-1.0198,-1.0168,-1.0165,-1.0155,-1.0149,-1.0149,-1.0144,-1.014,-1.0148,-1.0149,-1.015,0,-1.0931,-1.0839,-1.0784,-1.0753,-1.0663,-1.0638,-1.0598,-1.0534,-1.0496,-1.0438,-1.0412,-1.0348,-1.0312,-1.0262,-1.0207,-1.0207,-1.0135,-1.0123,-1.0107,-1.0109,-1.0093,-1.0095,-1.0082,-1.0074,-1.0074,-1.0074,-1.0074,0,-1.0915,-1.0874,-1.0793,-1.0759,-1.0711,-1.0653,-1.0605,-1.0562,-1.0505,-1.0461,-1.0414,-1.0373,-1.0303,-1.0252,-1.0208,-1.0151,-1.0135,-1.0108,-1.0097,-1.0112,-1.0115,-1.0089,-1.0088,-1.0073,-1.0074,-1.0074,-1.0074,0,-1.0932,-1.0877,-1.0814,-1.0734,-1.0713,-1.068,-1.061,-1.0575,-1.053,-1.0474,-1.0458,-1.0386,-1.0324,-1.0264,-1.0181,-1.0152,-1.0094,-1.0079,-1.0117,-1.011,-1.0097,-1.0099,-1.0065,-1.0057,-1.0057,-1.0057,-1.0057,0,-1.0926,-1.0892,-1.0809,-1.0777,-1.074,-1.0688,-1.065,-1.0592,-1.0554,-1.0477,-1.0451,-1.0386,-1.0332,-1.0235,-1.0175,-1.0111,-1.0093,-1.0086,-1.0083,-1.0099,-1.0092,-1.0094,-1.009,-1.0087,-1.0088,-1.0088,-1.0088,0,-1.0919,-1.0893,-1.0842,-1.078,-1.0737,-1.0685,-1.0631,-1.0607,-1.0538,-1.0497,-1.0435,-1.0392,-1.0308,-1.0244,-1.0173,-1.0131,-1.0097,-1.009,-1.0082,-1.0097,-1.0119,-1.0106,-1.012,-1.0091,-1.009,-1.009,-1.009,-1.009,-1.0923,-1.0891,-1.0828,-1.0771,-1.0725,-1.0676,-1.0639,-1.059,-1.0538,-1.0466,-1.0434,-1.0371,-1.0306,-1.0208,-1.0165,-1.0114,-1.0105,-1.0095,-1.0092,-1.009,-1.0093,-1.0129,-1.0101,-1.0101,-1.01,-1.01,-1.01,0,-1.0913,-1.087,-1.0819,-1.0747,-1.0702,-1.0677,-1.0616,-1.058,-1.0525,-1.0468,-1.0416,-1.0344,-1.0281,-1.0217,-1.015,-1.0121,-1.0104,-1.0106,-1.0107,-1.0097,-1.0105,-1.0118,-1.0121,-1.0121,-1.0121,-1.0121,-1.0121,-1.0121,-1.0903,-1.0848,-1.0815,-1.0736,-1.0692,-1.0632,-1.0599,-1.0553,-1.0507,-1.043,-1.0378,-1.0337,-1.0276,-1.0205,-1.0147,-1.0129,-1.0106,-1.0112,-1.009,-1.0098,-1.0097,-1.0095,-1.0107,-1.0107,-1.0107,-1.0085,-1.0085,-1.0085]},{"header":{"parameterUnit":"m.s-1","parameterCategory":1,"la1":30.2991,"la2":30.254,"lo1":-89.0895,"lo2":-89.0444,"dy":0.0017,"dx":0.0017,"nx":28,"ny":28,"refTime":"2024-07-03T09:00:00:Z","depth":0,"parameterNumber":3,"parameterNumberName":"V-component_of_WINDS"},"data":[0,0,0,0,0,0,0,0,0,0,0,0,0,0,0,0,0,0,0,0,0,0,0,0,0,0,0,0,0,0,0,0,0,0,0,0,0,0,0,0,0,0,0,0,0,0,0,0,0,0,0,0,0,0,0,0,0,0,1.3932,1.3932,0,1.3948,1.3948,1.3948,1.3901,1.39,1.3898,1.3897,1.3912,1.3914,1.3916,0,0,0,0,0,0,0,0,0,0,0,0,0,1.386,1.3861,1.3932,1.3932,1.3932,1.3948,1.3948,1.3948,1.3901,1.39,1.3898,1.3896,1.3912,1.3914,1.3916,0,0,0,0,0,0,0,0,0,0,0,0,0,1.3885,1.3862,1.3932,1.3911,1.3909,1.3948,1.3948,1.3948,1.3902,1.39,1.3897,1.3895,1.3911,1.3914,1.3916,1.3976,0,0,1.3924,1.3925,0,0,0,0,0,0,0,0,1.3884,1.3888,1.3913,1.3912,1.391,1.392,1.3928,1.3958,1.3902,1.3904,1.3897,1.3894,1.3917,1.3919,1.3926,1.3977,1.3977,1.3924,1.3926,1.3927,1.3928,0,0,0,0,0,0,0,1.3882,1.3887,1.3938,1.3914,1.3912,1.39,1.3901,1.3934,1.3922,1.3904,1.3901,1.3903,1.3915,1.3924,1.3926,1.3978,1.3924,1.3927,1.3928,1.3929,1.408,1.4082,0,0,0,0,0,0,1.3883,1.3886,1.3938,1.3939,1.3891,1.3903,1.3905,1.3919,1.3922,1.392,1.3905,1.3901,1.3921,1.3923,1.3927,1.3998,1.3927,1.393,1.3931,1.4078,1.408,1.4083,0,0,0,0,0,0,1.3882,1.3888,1.3937,1.3911,1.3917,1.3907,1.3924,1.3921,1.3929,1.3923,1.392,1.3916,1.3919,1.3923,1.3965,1.3998,1.3931,1.3933,1.4075,1.4078,1.4082,1.4141,0,0,0,0,0,0,1.388,1.3888,1.391,1.3912,1.3918,1.3975,1.3926,1.3923,1.3934,1.3929,1.3933,1.3931,1.3918,1.3961,1.3967,1.4,1.3935,1.4072,1.4076,1.4081,1.4136,1.4146,1.4155,0,0,0,0,0,1.3877,1.3926,1.3912,1.3918,1.3946,1.3977,1.398,1.3964,1.3937,1.396,1.3956,1.3931,1.3994,1.3966,1.3972,1.4007,1.4069,1.4075,1.408,1.4132,1.4144,1.4155,0,0,0,0,0,0,1.3927,1.3925,1.391,1.396,1.3969,1.3968,1.3996,1.3977,1.3993,1.3988,1.3967,1.3968,1.4014,1.4014,1.3983,1.4066,1.4027,1.4034,1.4064,1.4075,1.4085,1.4083,1.3938,0,0,0,0,0,1.3944,1.3969,1.3966,1.4011,1.4016,1.4006,1.4018,1.4006,1.4014,1.4017,1.4016,1.4025,1.4046,1.4061,1.408,1.4136,1.4137,1.4163,1.4173,1.418,1.4187,1.4218,1.423,1.4101,1.4101,1.4101,0,0,1.3979,1.3981,1.3998,1.4021,1.4026,1.4053,1.4009,1.4039,1.4058,1.4021,1.4061,1.4061,1.4069,1.4118,1.414,1.412,1.4223,1.4187,1.4194,1.4196,1.4225,1.4237,1.4248,1.4105,1.4104,1.4103,0,0,1.4056,1.406,1.4099,1.4105,1.4114,1.4108,1.4117,1.412,1.4119,1.4159,1.4132,1.4155,1.4192,1.42,1.4209,1.4292,1.427,1.4299,1.4348,1.4378,1.4388,1.4397,1.4428,1.4439,1.4305,1.4305,1.4305,0,1.4098,1.4137,1.412,1.4153,1.4164,1.4133,1.4172,1.4179,1.4194,1.4203,1.4181,1.4229,1.4232,1.4283,1.4304,1.4312,1.4322,1.4298,1.4388,1.4397,1.4405,1.4434,1.4445,1.4309,1.4308,1.4308,1.4307,0,1.4189,1.4217,1.4247,1.4264,1.4278,1.4314,1.4303,1.432,1.4306,1.4302,1.4344,1.4347,1.4367,1.4379,1.4365,1.4429,1.4416,1.4392,1.4352,1.4421,1.4448,1.4459,1.4314,1.4312,1.4311,1.431,0,0,1.4296,1.4305,1.4316,1.4324,1.4333,1.4354,1.4389,1.441,1.4425,1.4437,1.4466,1.45,1.4478,1.4488,1.4475,1.4502,1.4569,1.4474,1.4474,1.4492,1.4641,1.466,1.4672,1.4555,1.4557,1.4558,1.464,0,1.4373,1.4433,1.442,1.4479,1.4505,1.4477,1.4508,1.4517,1.4514,1.4536,1.4533,1.4558,1.4526,1.4533,1.4558,1.4556,1.4599,1.4549,1.4582,1.4583,1.4581,1.4686,1.4706,1.4783,1.4651,1.4652,1.4654,0,1.447,1.4487,1.455,1.4556,1.4567,1.4594,1.4613,1.4635,1.4645,1.4641,1.4654,1.4637,1.4672,1.4632,1.4681,1.4648,1.466,1.4662,1.4664,1.4666,1.4623,1.4692,1.4807,1.4818,1.467,1.4668,1.4667,0,1.4543,1.4582,1.4624,1.4632,1.464,1.4661,1.4665,1.4673,1.4687,1.4704,1.4713,1.4734,1.4745,1.4761,1.475,1.4723,1.4801,1.476,1.48,1.48,1.4817,1.4816,1.4936,1.4825,1.4825,1.4825,1.4824,0,1.463,1.467,1.4658,1.4684,1.4727,1.4712,1.4756,1.4757,1.4765,1.4791,1.4768,1.4793,1.4777,1.4801,1.4793,1.4835,1.484,1.4839,1.4836,1.4841,1.4841,1.4849,1.4843,1.4828,1.4827,1.4826,1.4826,0,1.4719,1.4712,1.4757,1.4762,1.4765,1.4797,1.4801,1.4826,1.4822,1.4856,1.4863,1.4858,1.4885,1.4876,1.4905,1.49,1.4953,1.4944,1.495,1.4948,1.4988,1.4984,1.5117,1.5134,1.5012,1.5013,1.5014,0,1.4775,1.4805,1.4814,1.483,1.4837,1.4863,1.4878,1.4865,1.4881,1.4897,1.492,1.4945,1.4965,1.501,1.5009,1.5031,1.5022,1.5067,1.5025,1.503,1.5024,1.5022,1.5026,1.5075,1.5077,1.5078,1.5079,0,1.4875,1.4871,1.4893,1.4916,1.4934,1.4951,1.4965,1.498,1.4968,1.4988,1.5016,1.5032,1.5062,1.5088,1.5109,1.5114,1.5095,1.5092,1.5102,1.5108,1.5111,1.511,1.4973,1.5089,1.5088,1.5087,1.5087,1.5086,1.4949,1.4975,1.4986,1.5013,1.5023,1.5037,1.5061,1.5062,1.5085,1.511,1.5101,1.5134,1.5145,1.5171,1.5179,1.5204,1.5187,1.5202,1.5206,1.521,1.5215,1.5107,1.5208,1.5208,1.5208,1.5207,1.5207,0,1.5049,1.5055,1.508,1.5102,1.5123,1.5104,1.512,1.5139,1.5168,1.518,1.5201,1.5234,1.526,1.5262,1.5286,1.5306,1.5299,1.5313,1.5312,1.5313,1.5229,1.5218,1.5319,1.5319,1.5319,1.5319,1.5319,1.5319,1.5103,1.5147,1.5144,1.5193,1.5199,1.5232,1.5242,1.5256,1.5266,1.5305,1.5326,1.5328,1.5336,1.5361,1.5384,1.5384,1.5394,1.5413,1.5409,1.533,1.5319,1.5308,1.5298,1.5415,1.5415,1.5492,1.5492,1.5493]}]]